Location: College Rock
(37.2713°N, 119.1740°W)
Time: 04:10:03
(UTC+00:00)

ATLAS 3B R/B - Pass Details

Date: 29 October 2020
Orbit: 1014 x 1181 km, 63.8° (Epoch: 23 November)

Event Time Altitude Azimuth Distance (km) Brightness Sun altitude
Exits shadow 12:44:57 32° 269° (W) 1,679 3.2 -19.2°
Maximum altitude 12:47:08 40° 310° (NW) 1,450 3.0 -18.8°
Drops below altitude 10° 12:53:20 10° 19° (NNE) 2,832 5.1 -17.5°
Sets 12:56:10 0° 27° (NNE) 3,806 5.9 -17.0°
